Total_Precipitation_Accumulation
0.03 0.07 0.03 0.01 0.03 0.05 0.01 0.01 0.00 0.00 0.00 0.00 0.00 0.00 0.00 0.00 0.00 0.00 0.00 0.00 0.01 0.03 0.02 0.02 0.02 0.03 0.03 0.01 0.01 0.00 0.00 0.01 0.01 0.04 0.06 0.10 0.08 0.06 0.04 0.04 0.05 0.06 0.09
0.04 0.04 0.03 0.06 0.08 0.02 0.01 0.00 0.00 0.00 0.00 0.00 0.00 0.00 0.00 0.00 0.00 0.00 0.00 0.00 0.01 0.01 0.01 0.01 0.02 0.02 0.02 0.01 0.00 0.00 0.00 0.00 0.01 0.01 0.04 0.06 0.06 0.04 0.03 0.02 0.04 0.04 0.04
0.05 0.05 0.03 0.28 0.32 0.15 0.07 0.01 0.01 0.00 0.00 0.00 0.00 0.01 0.01 0.01 0.01 0.00 0.00 0.00 0.00 0.01 0.01 0.01 0.02 0.03 0.01 0.00 0.00 0.00 0.00 0.00 0.00 0.00 0.01 0.01 0.02 0.03 0.01 0.01 0.01 0.01 0.01
0.06 0.13 0.04 0.16 0.51 0.42 0.16 0.06 0.03 0.07 0.04 0.01 0.02 0.00 0.01 0.03 0.03 0.02 0.01 0.00 0.00 0.01 0.01 0.02 0.03 0.02 0.01 0.00 0.00 0.00 0.00 0.00 0.00 0.00 0.00 0.02 0.03 0.05 0.03 0.02 0.01 0.01 0.01
0.25 0.15 0.02 0.05 0.36 0.67 0.28 0.13 0.10 0.09 0.07 0.05 0.06 0.01 0.00 0.03 0.02 0.04 0.02 0.00 0.01 0.01 0.02 0.03 0.02 0.01 0.00 0.00 0.00 0.00 0.00 0.00 0.00 0.00 0.00 0.00 0.01 0.03 0.02 0.01 0.01 0.01 0.01
0.32 0.08 0.06 0.09 0.21 0.85 0.72 0.35 0.23 0.14 0.16 0.12 0.11 0.04 0.02 0.03 0.02 0.02 0.01 0.00 0.03 0.03 0.03 0.02 0.01 0.00 0.00 0.01 0.00 0.00 0.00 0.00 0.00 0.00 0.00 0.00 0.00 0.01 0.01 0.01 0.01 0.01 0.01
0.27 0.32 0.38 0.38 0.59 0.78 1.41 1.33 0.88 0.70 0.53 0.38 0.11 0.02 0.02 0.03 0.02 0.01 0.00 0.01 0.04 0.04 0.02 0.01 0.00 0.00 0.00 0.00 0.00 0.00 0.00 0.00 0.00 0.00 0.00 0.00 0.00 0.02 0.02 0.01 0.01 0.01 0.01
0.29 0.65 0.95 0.49 0.82 1.60 1.13 2.74 2.77 2.33 1.72 0.80 0.38 0.14 0.03 0.09 0.03 0.02 0.01 0.01 0.02 0.01 0.01 0.00 0.00 0.00 0.00 0.00 0.00 0.00 0.00 0.00 0.00 0.00 0.00 0.00 0.01 0.01 0.01 0.01 0.00 0.00 0.00
0.43 0.92 1.49 1.08 0.66 1.45 2.18 2.24 3.36 4.23 4.38 3.92 1.92 1.16 0.30 0.11 0.03 0.03 0.02 0.01 0.02 0.01 0.00 0.00 0.00 0.00 0.00 0.00 0.00 0.00 0.00 0.00 0.00 0.00 0.00 0.00 0.00 0.00 0.01 0.00 0.00 0.00 0.00
0.22 0.71 1.29 1.71 1.22 0.91 1.54 1.73 2.67 4.00 3.35 3.92 4.01 2.97 1.13 0.61 0.14 0.04 0.03 0.01 0.01 0.00 0.00 0.00 0.00 0.00 0.00 0.00 0.00 0.00 0.00 0.00 0.00 0.00 0.00 0.00 0.01 0.01 0.00 0.00 0.00 0.00 0.00
0.30 0.49 0.84 1.98 1.60 1.08 1.11 1.04 1.54 3.24 3.34 2.72 2.48 2.86 1.60 0.98 0.29 0.06 0.06 0.04 0.01 0.00 0.00 0.00 0.00 0.00 0.00 0.00 0.00 0.00 0.00 0.00 0.00 0.00 0.00 0.01 0.01 0.01 0.01 0.00 0.00 0.00 0.00
0.21 0.36 0.61 1.50 1.57 1.49 1.08 0.92 0.89 1.60 2.49 2.89 1.62 1.65 1.37 0.74 0.30 0.04 0.09 0.06 0.00 0.00 0.00 0.00 0.00 0.00 0.00 0.00 0.00 0.00 0.00 0.00 0.00 0.00 0.00 0.01 0.01 0.00 0.01 0.00 0.00 0.00 0.00
0.29 0.32 0.49 1.00 1.12 1.57 1.40 1.10 1.06 1.08 1.15 2.73 1.75 0.83 0.88 0.87 0.28 0.12 0.07 0.05 0.00 0.00 0.00 0.00 0.00 0.00 0.00 0.00 0.00 0.00 0.00 0.00 0.00 0.00 0.00 0.01 0.01 0.00 0.00 0.00 0.00 0.00 0.00
0.13 0.13 0.32 0.39 0.48 0.79 1.16 1.10 0.76 0.87 0.94 1.25 1.61 0.70 0.48 0.59 0.16 0.08 0.03 0.02 0.00 0.00 0.00 0.00 0.00 0.00 0.00 0.00 0.00 0.00 0.00 0.00 0.00 0.00 0.00 0.00 0.01 0.00 0.01 0.00 0.00 0.00 0.00
0.06 0.08 0.12 0.27 0.18 0.33 0.59 0.84 0.81 0.51 0.58 0.62 0.90 0.59 0.25 0.13 0.11 0.16 0.02 0.01 0.00 0.00 0.00 0.00 0.00 0.00 0.00 0.00 0.00 0.00 0.00 0.00 0.00 0.00 0.00 0.00 0.00 0.01 0.01 0.00 0.00 0.00 0.00
0.10 0.05 0.06 0.14 0.14 0.23 0.52 0.68 0.85 0.71 0.43 0.45 0.36 0.25 0.09 0.06 0.06 0.10 0.02 0.01 0.00 0.00 0.00 0.00 0.00 0.00 0.00 0.00 0.00 0.00 0.00 0.00 0.00 0.00 0.00 0.00 0.00 0.01 0.02 0.01 0.00 0.00 0.00
0.25 0.12 0.08 0.11 0.22 0.25 0.35 0.47 0.68 0.76 0.63 0.45 0.23 0.10 0.04 0.03 0.03 0.05 0.01 0.00 0.00 0.00 0.00 0.00 0.00 0.00 0.00 0.00 0.00 0.00 0.00 0.00 0.00 0.00 0.00 0.00 0.00 0.00 0.01 0.01 0.00 0.00 0.00
0.24 0.43 0.10 0.16 0.54 0.43 0.36 0.36 0.43 0.72 0.77 0.54 0.20 0.07 0.04 0.01 0.02 0.04 0.02 0.02 0.00 0.00 0.00 0.00 0.00 0.00 0.00 0.00 0.00 0.00 0.00 0.00 0.00 0.00 0.00 0.00 0.00 0.00 0.00 0.01 0.00 0.00 0.00
0.04 0.47 0.47 0.24 0.32 0.48 0.46 0.37 0.40 0.54 0.68 0.54 0.22 0.07 0.03 0.01 0.01 0.05 0.11 0.08 0.02 0.02 0.00 0.00 0.00 0.00 0.00 0.00 0.00 0.00 0.00 0.00 0.00 0.00 0.00 0.00 0.00 0.00 0.00 0.00 0.00 0.00 0.00
0.00 0.05 0.31 0.37 0.33 0.30 0.32 0.28 0.37 0.50 0.66 0.41 0.19 0.05 0.03 0.00 0.01 0.02 0.02 0.04 0.03 0.03 0.00 0.00 0.00 0.00 0.00 0.00 0.00 0.00 0.00 0.00 0.00 0.00 0.00 0.00 0.00 0.00 0.00 0.00 0.00 0.00 0.00
0.00 0.02 0.05 0.22 0.21 0.33 0.28 0.19 0.21 0.30 0.48 0.27 0.21 0.08 0.02 0.01 0.02 0.03 0.02 0.03 0.02 0.05 0.01 0.01 0.00 0.00 0.00 0.00 0.00 0.00 0.00 0.00 0.00 0.00 0.00 0.00 0.00 0.00 0.00 0.00 0.01 0.00 0.00
0.00 0.01 0.02 0.03 0.09 0.17 0.22 0.23 0.10 0.09 0.15 0.16 0.16 0.18 0.08 0.03 0.01 0.03 0.04 0.05 0.04 0.05 0.02 0.01 0.00 0.00 0.00 0.00 0.00 0.00 0.00 0.00 0.00 0.00 0.00 0.00 0.00 0.00 0.00 0.00 0.00 0.00 0.00
0.00 0.01 0.01 0.01 0.03 0.05 0.14 0.24 0.16 0.12 0.11 0.14 0.16 0.25 0.16 0.06 0.00 0.00 0.02 0.04 0.04 0.04 0.02 0.01 0.00 0.00 0.00 0.00 0.00 0.00 0.00 0.00 0.00 0.00 0.00 0.00 0.00 0.00 0.00 0.00 0.00 0.00 0.00
0.00 0.00 0.01 0.01 0.00 0.02 0.03 0.06 0.06 0.07 0.06 0.02 0.02 0.09 0.15 0.07 0.04 0.00 0.00 0.01 0.01 0.01 0.04 0.04 0.02 0.02 0.01 0.00 0.00 0.01 0.00 0.03 0.10 0.09 0.01 0.00 0.00 0.00 0.00 0.00 0.00 0.00 0.00
0.00 0.00 0.01 0.01 0.01 0.01 0.01 0.02 0.02 0.01 0.01 0.01 0.01 0.02 0.07 0.08 0.06 0.01 0.00 0.02 0.03 0.03 0.05 0.14 0.11 0.09 0.05 0.10 0.07 0.02 0.01 0.00 0.01 0.13 0.11 0.05 0.01 0.00 0.00 0.00 0.00 0.00 0.00
0.00 0.00 0.00 0.01 0.01 0.01 0.00 0.01 0.00 0.00 0.00 0.00 0.00 0.00 0.03 0.02 0.04 0.04 0.01 0.03 0.10 0.12 0.14 0.20 0.28 0.17 0.13 0.14 0.25 0.14 0.13 0.09 0.05 0.05 0.05 0.06 0.10 0.05 0.02 0.03 0.04 0.03 0.02